TimeAKST,TemperatureF,Dew PointF,Humidity,Sea Level PressureIn,VisibilityMPH,Wind Direction,Wind SpeedMPH,Gust SpeedMPH,PrecipitationIn,Events,Conditions,WindDirDegrees,DateUTC
12:16 AM,-23.8,-23.8,100,30.17,10.0,ENE,3.5,-,N/A,,Clear,60,2013-01-28 09:16:00
12:36 AM,-25.6,-9999,N/A,30.18,10.0,East,3.5,-,N/A,,Clear,80,2013-01-28 09:36:00
12:56 AM,-22.0,-25.6,83,30.19,10.0,ENE,3.5,-,N/A,,Clear,60,2013-01-28 09:56:00
1:16 AM,-23.8,-9999,N/A,30.19,10.0,East,4.6,-,N/A,,Clear,80,2013-01-28 10:16:00
1:36 AM,-23.8,-29.2,76,30.19,10.0,NE,3.5,-,N/A,,Clear,50,2013-01-28 10:36:00
1:56 AM,-23.8,-23.8,100,30.19,10.0,East,3.5,-,N/A,,Clear,90,2013-01-28 10:56:00
2:16 AM,-23.8,-9999,N/A,30.18,10.0,ENE,6.9,-,N/A,,Clear,60,2013-01-28 11:16:00
2:36 AM,-25.6,-9999,N/A,30.18,10.0,East,3.5,-,N/A,,Clear,80,2013-01-28 11:36:00
2:56 AM,-23.8,-9999,N/A,30.18,10.0,NE,3.5,-,N/A,,Clear,50,2013-01-28 11:56:00
3:16 AM,-23.8,-27.4,83,30.18,10.0,East,3.5,-,N/A,,Clear,80,2013-01-28 12:16:00
3:36 AM,-23.8,-9999,N/A,30.17,10.0,NE,3.5,-,N/A,,Clear,40,2013-01-28 12:36:00
3:56 AM,-23.8,-9999,N/A,30.18,10.0,NE,4.6,-,N/A,,Clear,40,2013-01-28 12:56:00
4:16 AM,-23.8,-9999,N/A,30.18,10.0,ENE,4.6,-,N/A,,Clear,70,2013-01-28 13:16:00
4:36 AM,-23.8,-27.4,83,30.18,10.0,ENE,3.5,-,N/A,,Clear,70,2013-01-28 13:36:00
4:56 AM,-22.0,-27.4,76,30.18,10.0,ENE,3.5,-,N/A,,Clear,60,2013-01-28 13:56:00
5:16 AM,-20.2,-27.4,69,30.19,10.0,ENE,4.6,-,N/A,,Clear,60,2013-01-28 14:16:00
5:36 AM,-23.8,-9999,N/A,30.18,10.0,ENE,3.5,-,N/A,,Clear,60,2013-01-28 14:36:00
5:56 AM,-20.2,-25.6,76,30.17,10.0,ENE,4.6,-,N/A,,Clear,60,2013-01-28 14:56:00
6:16 AM,-20.2,-22.0,91,30.17,10.0,East,3.5,-,N/A,,Clear,80,2013-01-28 15:16:00
6:36 AM,-18.4,-23.8,76,30.16,10.0,ENE,3.5,-,N/A,,Clear,70,2013-01-28 15:36:00
6:56 AM,-16.6,-16.6,100,30.15,10.0,ENE,5.8,-,N/A,,Clear,70,2013-01-28 15:56:00
7:16 AM,-16.6,-25.6,64,30.14,10.0,East,3.5,-,N/A,,Clear,80,2013-01-28 16:16:00
7:36 AM,-14.8,-18.4,84,30.14,10.0,East,5.8,-,N/A,,Clear,90,2013-01-28 16:36:00
7:56 AM,-14.8,-18.4,84,30.14,10.0,East,4.6,-,N/A,,Clear,80,2013-01-28 16:56:00
8:16 AM,-14.8,-23.8,64,30.14,10.0,ENE,4.6,-,N/A,,Clear,70,2013-01-28 17:16:00
8:36 AM,-14.8,-18.4,84,30.13,10.0,ENE,3.5,-,N/A,,Clear,70,2013-01-28 17:36:00
8:56 AM,-14.8,-20.2,77,30.13,10.0,NE,3.5,-,N/A,,Clear,50,2013-01-28 17:56:00
9:16 AM,-13.0,-18.4,77,30.14,10.0,East,3.5,-,N/A,,Clear,90,2013-01-28 18:16:00
9:36 AM,-11.2,-16.6,77,30.14,10.0,ENE,5.8,-,N/A,,Clear,70,2013-01-28 18:36:00
9:56 AM,-11.2,-18.4,70,30.13,10.0,ENE,4.6,-,N/A,,Clear,70,2013-01-28 18:56:00
10:16 AM,-9.4,-14.8,77,30.13,10.0,East,5.8,-,N/A,,Clear,90,2013-01-28 19:16:00
10:36 AM,-7.6,-14.8,71,30.13,10.0,ESE,8.1,-,N/A,,Clear,110,2013-01-28 19:36:00
10:56 AM,-7.6,-14.8,71,30.12,10.0,ESE,6.9,-,N/A,,Clear,110,2013-01-28 19:56:00
11:16 AM,-5.8,-11.2,77,30.12,10.0,ESE,6.9,-,N/A,,Clear,110,2013-01-28 20:16:00
11:36 AM,-5.8,-14.8,65,30.11,10.0,East,5.8,-,N/A,,Clear,90,2013-01-28 20:36:00
11:56 AM,-5.8,-11.2,77,30.10,10.0,East,6.9,-,N/A,,Clear,90,2013-01-28 20:56:00
12:16 PM,-4.0,-11.2,71,30.10,10.0,East,4.6,-,N/A,,Partly Cloudy,90,2013-01-28 21:16:00
12:36 PM,-2.2,-9.4,71,30.10,10.0,East,6.9,-,N/A,,Scattered Clouds,100,2013-01-28 21:36:00
12:56 PM,-0.4,-5.8,78,30.10,10.0,East,6.9,-,N/A,,Mostly Cloudy,100,2013-01-28 21:56:00
1:16 PM,1.4,-9.4,61,30.10,10.0,East,8.1,-,N/A,,Overcast,90,2013-01-28 22:16:00
1:36 PM,1.4,-9.4,61,30.07,10.0,East,5.8,-,N/A,,Overcast,80,2013-01-28 22:36:00
1:56 PM,1.4,-7.6,66,30.06,10.0,East,6.9,-,N/A,,Overcast,90,2013-01-28 22:56:00
2:16 PM,1.4,-9.4,61,30.05,10.0,East,8.1,-,N/A,,Overcast,100,2013-01-28 23:16:00
2:36 PM,1.4,-7.6,66,30.04,10.0,East,8.1,-,N/A,,Overcast,90,2013-01-28 23:36:00
2:56 PM,1.4,-9.4,61,30.03,10.0,East,6.9,-,N/A,,Overcast,90,2013-01-28 23:56:00
3:16 PM,3.2,-7.6,61,30.02,10.0,East,5.8,-,N/A,,Overcast,100,2013-01-29 00:16:00
3:36 PM,3.2,-7.6,61,30.01,10.0,East,4.6,-,N/A,,Overcast,100,2013-01-29 00:36:00
3:56 PM,3.2,-5.8,66,30.00,10.0,East,6.9,-,N/A,,Overcast,100,2013-01-29 00:56:00
4:16 PM,3.2,-7.6,61,30.00,10.0,East,6.9,-,N/A,,Overcast,100,2013-01-29 01:16:00
4:36 PM,3.2,-7.6,61,30.00,10.0,ESE,4.6,-,N/A,,Overcast,110,2013-01-29 01:36:00
4:56 PM,3.2,-5.8,66,30.00,5.0,East,5.8,-,N/A,,Mostly Cloudy,90,2013-01-29 01:56:00
5:16 PM,3.2,-2.2,78,30.00,1.5,ENE,4.6,-,N/A,,Scattered Clouds,70,2013-01-29 02:16:00
5:36 PM,6.8,1.4,79,30.00,5.0,ENE,6.9,-,N/A,,Clear,60,2013-01-29 02:36:00
5:56 PM,6.8,-2.2,67,30.00,2.5,ENE,6.9,-,N/A,,Clear,60,2013-01-29 02:56:00
6:16 PM,6.8,3.2,85,29.99,1.0,NE,8.1,-,N/A,,Clear,50,2013-01-29 03:16:00
6:36 PM,6.8,-0.4,72,29.97,0.8,NE,8.1,-,N/A,,Unknown,50,2013-01-29 03:36:00
6:56 PM,6.8,1.4,79,29.95,1.0,NE,6.9,-,N/A,,Clear,50,2013-01-29 03:56:00
7:16 PM,6.8,3.2,85,29.94,1.2,NE,8.1,-,N/A,,Clear,40,2013-01-29 04:16:00
7:36 PM,6.8,-0.4,72,29.93,1.2,NE,9.2,-,0.01,,Unknown,40,2013-01-29 04:36:00
7:56 PM,6.8,3.2,85,29.91,1.0,NE,9.2,17.3,0.01,,Clear,40,2013-01-29 04:56:00
8:16 PM,6.8,6.8,100,29.90,1.2,NE,8.1,-,N/A,,Clear,40,2013-01-29 05:16:00
8:36 PM,6.8,-2.2,67,29.89,1.5,NE,9.2,16.1,N/A,,Clear,40,2013-01-29 05:36:00
8:56 PM,6.8,1.4,79,29.88,1.5,NNE,10.4,16.1,N/A,,Clear,30,2013-01-29 05:56:00
9:16 PM,8.6,6.8,92,29.88,1.5,NNE,8.1,-,N/A,,Clear,30,2013-01-29 06:16:00
9:36 PM,8.6,1.4,73,29.86,1.8,NE,5.8,19.6,N/A,,Clear,40,2013-01-29 06:36:00
9:56 PM,8.6,5.0,85,29.85,3.0,NE,9.2,18.4,N/A,,Clear,40,2013-01-29 06:56:00
10:16 PM,6.8,3.2,85,29.84,4.0,NE,10.4,17.3,N/A,,Clear,40,2013-01-29 07:16:00
10:36 PM,6.8,3.2,85,29.84,5.0,NE,10.4,18.4,N/A,,Partly Cloudy,40,2013-01-29 07:36:00
10:56 PM,6.8,3.2,85,29.83,4.0,NE,11.5,-,N/A,,Clear,50,2013-01-29 07:56:00
11:16 PM,6.8,3.2,85,29.82,5.0,NE,9.2,-,N/A,,Clear,50,2013-01-29 08:16:00
11:36 PM,6.8,3.2,85,29.81,3.0,ENE,9.2,17.3,N/A,,Clear,60,2013-01-29 08:36:00
11:56 PM,6.8,3.2,85,29.81,5.0,NE,8.1,-,N/A,,Clear,50,2013-01-29 08:56:00